Location: Aalen
(48.8330°N, 10.1000°E)
Time: 11:58:10
(UTC+02:00)

S-56A Canister/Altair - Pass Details

Date: 03 August 2021
Orbit: 632 x 2500 km, 38.9° (Epoch: 21 September)

Event Time Altitude Azimuth Distance (km) Brightness Sun altitude
Rises 15:59:48 0° 235° (SW) 5,339 12.6 45.7°
Reaches altitude 10° 16:03:07 10° 230° (SW) 4,550 12.5 45.3°
Maximum altitude 16:15:39 50° 161° (SSE) 2,917 11.1 43.5°
Drops below altitude 10° 16:29:48 10° 93° (E) 5,107 11.4 41.4°
Sets 16:33:46 0° 89° (E) 6,019 11.7 40.8°
